Location: Detroit
(42.3310°N, 83.0460°W)
Time: 09:50:45
(UTC-04:00)

X-37B - Pass Details

Date: 29 September 2023
Orbit: 277 x 277 km, 45.0° (Epoch: 01 November)

Event Time Altitude Azimuth Distance (km) Brightness Sun altitude
Exits shadow 06:26:23 11° 204° (SSW) 1,030 2.4 -12.0°
Drops below altitude 10° 06:26:53 10° 192° (SSW) 1,094 2.7 -11.9°
Sets 06:29:38 0° 156° (SSE) 1,900 4.3 -11.4°
